CAPE
16 0 10 30 1 0 5 170 404 742 798 702 789 784 450 480 663 242 382 185 0 0
102 103 69 23 0 0 0 109 162 432 1048 1005 902 907 725 544 750 965 370 308 228 11
272 264 237 104 0 0 0 246 402 480 663 900 1080 919 919 773 701 929 962 493 209 330
425 411 404 378 156 204 0 101 609 577 856 970 983 878 867 1120 1172 934 1096 1087 799 420
572 680 826 627 243 144 455 0 233 690 798 1140 1174 992 938 915 1265 1417 1213 1263 1234 1123
544 455 674 1253 1052 286 147 276 127 376 825 986 1249 1254 1033 1028 995 1283 1560 1412 1337 1465
886 812 556 494 960 1202 599 371 419 465 723 985 1160 1328 1340 1291 1213 1170 1366 1614 1581 1564
1126 1143 1063 788 586 915 1288 985 698 741 1051 1124 1168 1315 1375 1482 1462 1336 1292 1304 1433 1561
1096 1315 1361 1277 1088 732 1058 1444 1043 823 929 1328 1508 1626 1307 1430 1527 1609 1607 1542 1412 1511
1322 1347 1541 1636 1564 1256 1027 1091 1511 1480 1115 1201 1363 1549 1075 863 1629 1548 1526 1594 1604 1637
1712 1617 1547 1717 1903 1817 1519 1344 1237 1235 1565 1628 1642 1580 507 486 1434 1872 1840 1760 1712 1716
1889 1934 1978 1878 1891 2000 2063 1951 1713 1550 1237 1227 1638 1373 867 86 1204 1709 1922 1959 1914 1970
1933 2085 2110 2222 2141 2089 2123 2174 2254 2272 2138 1670 1476 1526 422 27 1571 1785 1876 2026 2148 1830
1969 2167 2277 2216 2231 2197 2174 2235 2240 2262 2321 2369 2083 2091 583 3 1564 1973 2053 2130 2247 2325
CIN
-351 -0 -354 -342 -24 -0 -163 -249 -186 -159 -127 -139 -135 -129 -174 -161 -135 -227 -200 -218 -0 -0
-335 -325 -325 -402 -0 -0 -0 -310 -267 -203 -124 -129 -138 -129 -143 -158 -137 -131 -228 -239 -263 -440
-312 -321 -302 -385 -13 -0 -0 -264 -231 -214 -160 -145 -137 -144 -137 -148 -164 -140 -161 -242 -309 -323
-311 -314 -284 -318 -394 -349 -0 -385 -206 -217 -154 -145 -150 -166 -165 -135 -119 -140 -141 -163 -219 -319
-310 -289 -249 -292 -403 -421 -296 -22 -286 -196 -173 -129 -142 -177 -171 -159 -109 -96 -126 -140 -162 -208
-355 -392 -344 -215 -255 -410 -414 -351 -401 -282 -199 -183 -146 -144 -177 -166 -166 -137 -103 -130 -146 -153
-342 -359 -419 -420 -301 -244 -334 -345 -335 -303 -244 -205 -172 -151 -152 -163 -168 -173 -158 -129 -140 -151
-347 -322 -333 -391 -436 -339 -246 -280 -315 -299 -237 -225 -193 -165 -170 -161 -163 -178 -191 -199 -186 -181
-403 -342 -333 -345 -374 -439 -359 -262 -310 -341 -313 -237 -201 -170 -223 -187 -177 -180 -176 -194 -229 -223
-414 -413 -362 -333 -333 -390 -428 -385 -296 -288 -337 -340 -305 -257 -368 -403 -184 -199 -218 -213 -203 -215
-416 -429 -416 -364 -329 -336 -382 -410 -424 -406 -338 -311 -318 -328 -583 -576 -297 -181 -209 -231 -240 -239
-463 -438 -400 -404 -410 -377 -337 -355 -403 -429 -474 -460 -384 -428 -549 -809 -393 -283 -251 -244 -257 -265
-497 -455 -441 -413 -412 -418 -381 -373 -340 -333 -354 -435 -463 -434 -728 -957 -345 -304 -277 -262 -272 -337
-517 -492 -461 -429 -387 -393 -388 -355 -357 -348 -330 -314 -378 -356 -706 -511 -371 -283 -262 -297 -298 -275
Wind_Speed
14 9 8 10 6 6 6 7 8 8 6 7 6 6 5 3 4 5 4 5 4 3
14 13 11 10 10 7 6 6 7 9 9 6 6 7 6 5 6 5 5 6 5 5
16 15 13 9 10 9 8 7 7 8 9 7 7 8 8 6 5 6 4 4 6 6
15 14 13 10 10 10 8 9 7 8 8 8 9 8 9 8 7 8 6 5 7 8
15 15 14 13 11 11 11 8 9 7 9 10 10 10 11 10 9 10 9 9 7 9
15 14 14 14 12 11 11 8 9 8 10 12 11 10 10 11 11 10 11 11 10 11
16 15 15 15 14 13 12 11 12 12 12 12 10 11 11 12 12 12 11 11 11 12
16 16 15 14 14 14 14 14 14 12 12 11 11 10 12 12 12 12 12 11 12 13
16 16 16 15 14 14 14 15 14 15 15 14 11 14 17 15 12 13 13 13 12 14
15 15 16 15 14 15 15 14 15 15 15 15 15 17 20 20 13 12 13 14 13 12
15 16 15 14 15 14 13 15 14 14 14 14 13 15 18 20 17 14 15 15 15 16
16 16 15 16 16 15 13 14 14 14 15 15 15 16 18 15 14 16 17 15 15 17
16 17 17 17 17 14 14 14 11 13 14 16 15 15 19 17 11 14 11 14 17 18
16 18 16 15 13 12 13 12 13 13 12 14 14 14 18 20 14 13 12 13 12 11
Wind_Direction
196 194 194 190 180 193 196 204 202 202 200 201 188 190 177 188 190 186 199 199 208 213
195 195 198 187 192 191 184 194 195 196 205 197 186 189 179 191 208 191 196 210 210 220
197 199 198 182 179 186 197 201 190 194 202 189 189 190 185 193 204 201 209 200 208 230
199 201 197 188 188 189 183 197 197 189 196 195 195 193 195 200 192 205 219 212 211 234
196 194 198 199 189 187 191 188 200 186 195 203 203 198 201 208 204 203 212 224 223 241
195 192 195 200 196 189 191 174 194 191 203 209 210 204 203 208 209 209 213 213 219 233
194 195 199 201 201 197 193 188 195 204 212 212 206 209 207 208 211 213 217 213 216 224
194 195 199 203 201 201 202 203 203 203 213 210 206 208 211 210 213 215 218 216 219 225
192 194 198 200 202 201 205 208 207 212 209 212 211 207 204 205 211 215 219 222 222 229
194 197 200 200 195 202 206 205 211 212 213 216 215 204 205 207 215 216 221 226 229 231
191 196 198 198 201 203 203 207 211 216 216 220 221 205 207 208 218 227 228 227 228 233
192 193 193 199 203 203 200 207 213 215 215 218 223 206 205 196 219 228 235 234 230 233
190 195 196 200 205 203 204 212 210 217 217 217 222 206 203 197 218 231 235 239 241 230
196 199 198 199 202 203 204 208 214 219 219 219 214 219 199 199 215 227 234 238 242 241